Regional Weather Roundup
Issued by NWS Mobile, AL

Home | Current Version | Previous Version | Text Only | Print | Product List | Glossary On
Versions: 1 2 3 4 5 6 7 8 9 10 11 12 13 14 15 16 17 18 19 20 21 22 23 24 25 26 27 28
000
ASUS44 KMOB 201110
RWRMOB
REGIONAL WEATHER ROUNDUP
NATIONAL WEATHER SERVICE MOBILE AL
600 AM CDT SUN APR 20 2014

NOTE: "FAIR" INDICATES FEW OR NO CLOUDS BELOW 12,000 FEET WITH NO
      SIGNIFICANT WEATHER AND/OR OBSTRUCTIONS TO VISIBILITY.

  * THESE STATIONS ARE PART OF THE UNIVERSITY OF SOUTH ALABAMA
    MESONET AND ARE NOT UNDER NWS OR FAA QUALITY CONTROL.

ALZ061>064-201200-
COASTAL ALABAMA

CITY           SKY/WX    TMP DP  RH WIND       PRES   REMARKS
MOBILE REG APT PTCLDY    54  52  93 CALM      30.16R
BROOKLEY FIELD CLEAR     54  52  93 NW3       30.17R
USA CAMPUS*      N/A     54  52  94 CALM      30.17R
DOG RIVER*     NOT AVBL


CITY           SKY/WX    TMP DP  RH WIND       PRES   REMARKS
MOUNT VERNON*    N/A     46  45  93 CALM      30.18R
SARALAND*      NOT AVBL
BAY MINETTE*   NOT AVBL
LOXLEY*        NOT AVBL
ROBERTSDALE*   NOT AVBL
FAIRHOPE*      NOT AVBL
ELBERTA*       NOT AVBL
FOLEY*         NOT AVBL
GRAND BAY*       N/A     54  52  94 CALM      30.13R
DAUPHIN ISLND* NOT AVBL
BON SCOUR NWR* NOT AVBL
GULF SHORES    CLEAR     55  52  91 CALM      30.14S

$$

ALZ051>060-201200-
INTERIOR SOUTHWEST AND SOUTH CENTRAL ALABAMA

CITY           SKY/WX    TMP DP  RH WIND       PRES   REMARKS
GREENVILLE     CLOUDY    55  48  77 NE9       30.14R
EVERGREEN      CLEAR     53  47  79 N3        30.17R
CASTLEBERRY*   NOT AVBL
ATMORE*          N/A     52  52 100 N5        30.17R
DIXIE*         NOT AVBL
ANDALUSIA/OPP  CLOUDY    59  49  69 E5        30.13R
ANDALUSIA*     NOT AVBL
FLORALA APT    CLOUDY    53  51  93 CALM      30.15R
FLORALA*         N/A     52  50  93 CALM      30.11R

$$

FLZ001>006-201200-
WESTERN FLORIDA PANHANDLE

CITY           SKY/WX    TMP DP  RH WIND       PRES   REMARKS
PENSACOLA      PTCLDY    57  51  80 NE3       30.13R
NAS PENSACOLA  CLEAR     56  53  90 N3        30.13R
MILTON         CLEAR     53  50  89 NW5       30.14R
WHTNG S FIELD  CLEAR     53  50  89 NW5       30.14R


CITY           SKY/WX    TMP DP  RH WIND       PRES   REMARKS
WALNUT HILL*   NOT AVBL
JAY*           NOT AVBL
DUKE FIELD     MOCLDY    52  52 100 NE3       30.12R
CRESTVIEW      CLEAR     52  50  93 CALM      30.14R
VALPARAISO     MOCLDY    55  54  94 NE8       30.12R
DESTIN         CLOUDY    59  53  80 E6        30.13R

$$

MSZ076-079-201200-
INTERIOR SOUTHEAST MISSISSIPPI

CITY           SKY/WX    TMP DP  RH WIND       PRES   REMARKS
LEAKESVILLE*     N/A     50  48  93 CALM      30.16R
AGRICOLA*      NOT AVBL

$$

MARINE OBSERVATIONS

STATION/POSITION TIME  TEMP    WIND        PRES    WAVE
                       AIR SEA DIR/SP/G            HT/PER
                 (UTC) (F)     (DEG/KT/KT) (MB)    (FT/S)
PASCAGOULA       1100   60      30/  3/  4 1020.5R
PETIT BOIS ISLND 1100   63      40/ 10/ 12 1021.0R
GRAND BAY        1000   59     340/  3     1021.0S
KATRINA CUT      1000   62      40/  8     1021.3R
CEDAR POINT      1000   62      40/  8     1020.0F
E DAUPHIN ISLAND 1000   63      30/ 10/ 11 1020.1R
MIDDLE BAY LIGHT 1000   61      40/  9     1019.6R
USCG MOBILE BAY  1100   58 64  340/  3/  5 1020.1R
STATE DOCKS      1100   59 63              1020.8R
MEAHER PARK      1000   58     350/  2     1021.3R
WEEKS BAY        1000   48                   N/A
FORT MORGAN      1100   61      60/ 12/ 14 1020.1S
12 S ORANGE BCH  1100   62 66   30/ 12/ 14 1020.3R   2/ 4
PENSACOLA BAY    1100   59 66   20/  3/  5 1020.6R
64 S DAUPHIN ISL 1048   67 70   30/ 10/ 12 1020.2R
67 S FORT MORGAN 1000   68                 1018.0S

$$

SELECTED LOCATIONS ACROSS THE REGION

CITY           SKY/WX    TMP DP  RH WIND       PRES   REMARKS
NEW ORLEANS    PTCLDY    60  57  89 CALM      30.13R
GULFPORT       CLEAR     57  52  83 CALM      30.14R
PASCAGOULA AP  CLEAR     51  51 100 CALM      30.16R FOG
PASCAGOULA*      N/A     54  54 100 CALM      30.15R
HATTIESBURG    PTCLDY    50  48  93 CALM      30.17R
LAUREL         PTCLDY    48  46  93 CALM      30.18R
MERIDIAN       CLEAR     47  45  93 CALM      30.19R
JACKSON        PTCLDY    49  48  97 CALM      30.17R
MONTGOMERY     CLOUDY    57  47  69 NE9       30.17R
TROY           CLOUDY    55  48  77 NE8       30.15R
KINSTON*       NOT AVBL
GENEVA*          N/A     54  50  87 NE6       30.14R
ASHFORD*       NOT AVBL
DOTHAN         CLOUDY    54  50  86 NE8       30.15R
PANAMA CITY    CLOUDY    58  52  80 CALM      30.11R

$$




USA.gov is the U.S. government's official web portal to all federal, state and local government web resources and services.